Location: Wavehorne
(51.0500°N, 0.8333°E)
Time: 21:08:45
(UTC+00:00)

NOSS 2-2 (C) - Pass Details

Date: 26 October 2021
Orbit: 450 x 1756 km, 63.3° (Epoch: 26 November)

Event Time Altitude Azimuth Distance (km) Brightness Sun altitude
Exits shadow 02:23:49 18° 119° (ESE) 2,277 6.6 -39.3°
Drops below altitude 10° 02:25:34 10° 122° (ESE) 2,919 7.2 -39.0°
Sets 02:28:45 0° 126° (SE) 4,100 8.0 -38.6°
